• In Uzbekistan
  • List of Countries
  • For 7 days
  • Water Temperature
  • Satellite Maps
  • Weather Map
  • Weather Widgets
  • user-avatar
    Login

    Hourly Weather Namibe

    Today, 24 June, Saturday

    Time Temperature Precipitation Wind Pressure Humidity
    00:00 +25°C° 0 mm 1 mps 759 mmHg 47%
    01:00 +24°C° 0 mm 1 mps 759 mmHg 56%
    02:00 +24°C° 0 mm 1 mps 759 mmHg 51%
    03:00 +24°C° 0 mm 1 mps 759 mmHg 47%
    04:00 +24°C° 0 mm 1 mps 759 mmHg 43%
    05:00 +24°C° 0 mm 1 mps 759 mmHg 39%
    06:00 +23°C° 0 mm 1 mps 759 mmHg 36%
    07:00 +24°C° 0 mm 1 mps 759 mmHg 32%
    08:00 +27°C° 0 mm 2 mps 759 mmHg 28%
    09:00 +29°C° 0 mm 2 mps 759 mmHg 23%
    10:00 +32°C° 0 mm 2 mps 759 mmHg 19%
    11:00 +34°C° 0 mm 2 mps 759 mmHg 18%
    12:00 +36°C° 0 mm 3 mps 758 mmHg 17%
    13:00 +37°C° 0 mm 3 mps 758 mmHg 16%
    14:00 +36°C° 0 mm 4 mps 757 mmHg 19%
    15:00 +36°C° 0 mm 4 mps 757 mmHg 22%
    16:00 +35°C° 0 mm 5 mps 757 mmHg 25%
    17:00 +33°C° 0 mm 4 mps 757 mmHg 32%
    18:00 +30°C° 0 mm 3 mps 757 mmHg 39%
    19:00 +27°C° 0 mm 2 mps 758 mmHg 47%
    20:00 +27°C° 0 mm 2 mps 758 mmHg 49%
    21:00 +26°C° 0 mm 1 mps 758 mmHg 51%
    22:00 +26°C° 0 mm 1 mps 759 mmHg 53%
    23:00 +25°C° 0 mm 1 mps 759 mmHg 54%

    Tomorrow, 25 June, Sunday

    Time Temperature Precipitation Wind Pressure Humidity
    00:00 +25°C° 0 mm 1 mps 759 mmHg 56%
    01:00 +24°C° 0 mm 2 mps 759 mmHg 58%
    02:00 +24°C° 0 mm 2 mps 758 mmHg 57%
    03:00 +24°C° 0 mm 1 mps 758 mmHg 56%
    04:00 +23°C° 0 mm 1 mps 758 mmHg 55%
    05:00 +24°C° 0 mm 1 mps 758 mmHg 53%
    06:00 +24°C° 0 mm 1 mps 758 mmHg 50%
    07:00 +24°C° 0 mm 1 mps 758 mmHg 48%
    08:00 +26°C° 0 mm 1 mps 758 mmHg 40%
    09:00 +29°C° 0 mm 1 mps 759 mmHg 31%
    10:00 +32°C° 0 mm 1 mps 759 mmHg 23%
    11:00 +34°C° 0 mm 2 mps 758 mmHg 21%
    12:00 +35°C° 0 mm 3 mps 758 mmHg 19%
    13:00 +37°C° 0 mm 4 mps 757 mmHg 18%
    14:00 +36°C° 0 mm 4 mps 757 mmHg 22%
    15:00 +35°C° 0 mm 5 mps 757 mmHg 26%
    16:00 +34°C° 0 mm 5 mps 757 mmHg 30%
    17:00 +32°C° 0 mm 4 mps 757 mmHg 37%
    18:00 +29°C° 0 mm 3 mps 758 mmHg 44%
    19:00 +27°C° 0 mm 2 mps 758 mmHg 52%
    20:00 +26°C° 0 mm 2 mps 758 mmHg 53%
    21:00 +26°C° 0 mm 1 mps 759 mmHg 55%
    22:00 +25°C° 0 mm 1 mps 759 mmHg 57%
    23:00 +25°C° 0 mm 1 mps 759 mmHg 57%

    Day after tomorrow, 26 June, Monday

    Time Temperature Precipitation Wind Pressure Humidity
    00:00 +25°C° 0 mm 1 mps 759 mmHg 57%
    01:00 +24°C° 0 mm 1 mps 759 mmHg 56%
    02:00 +24°C° 0 mm 1 mps 758 mmHg 56%
    03:00 +24°C° 0 mm 1 mps 758 mmHg 56%
    04:00 +23°C° 0 mm 1 mps 758 mmHg 56%
    05:00 +23°C° 0 mm 2 mps 758 mmHg 55%
    06:00 +23°C° 0 mm 2 mps 758 mmHg 54%
    07:00 +23°C° 0 mm 2 mps 758 mmHg 53%
    08:00 +26°C° 0 mm 2 mps 759 mmHg 44%
    09:00 +29°C° 0 mm 2 mps 759 mmHg 35%
    10:00 +32°C° 0 mm 2 mps 759 mmHg 26%
    11:00 +34°C° 0 mm 3 mps 759 mmHg 25%
    12:00 +36°C° 0 mm 3 mps 758 mmHg 23%
    13:00 +37°C° 0 mm 4 mps 758 mmHg 21%
    14:00 +36°C° 0 mm 5 mps 757 mmHg 23%
    15:00 +36°C° 0 mm 5 mps 757 mmHg 24%
    16:00 +35°C° 0 mm 5 mps 757 mmHg 26%
    17:00 +33°C° 0 mm 5 mps 757 mmHg 31%
    18:00 +30°C° 0 mm 4 mps 758 mmHg 37%
    19:00 +28°C° 0 mm 4 mps 759 mmHg 42%
    20:00 +27°C° 0 mm 4 mps 759 mmHg 42%
    21:00 +27°C° 0 mm 4 mps 760 mmHg 43%
    22:00 +26°C° 0 mm 3 mps 760 mmHg 43%
    23:00 +26°C° 0 mm 4 mps 760 mmHg 43%

    27 June, Tuesday

    Time Temperature Precipitation Wind Pressure Humidity
    00:00 +26°C° 0 mm 4 mps 759 mmHg 42%
    01:00 +25°C° 0 mm 4 mps 759 mmHg 42%
    02:00 +25°C° 0 mm 4 mps 759 mmHg 42%
    03:00 +25°C° 0 mm 4 mps 759 mmHg 42%
    04:00 +23°C° 0 mm 4 mps 758 mmHg 41%
    05:00 +23°C° 0 mm 4 mps 759 mmHg 41%
    06:00 +23°C° 0 mm 4 mps 759 mmHg 41%
    07:00 +23°C° 0 mm 4 mps 759 mmHg 41%
    08:00 +27°C° 0 mm 4 mps 760 mmHg 34%
    09:00 +30°C° 0 mm 4 mps 760 mmHg 27%
    10:00 +34°C° 0 mm 4 mps 760 mmHg 20%
    11:00 +35°C° 0 mm 5 mps 759 mmHg 16%
    12:00 +37°C° 0 mm 5 mps 759 mmHg 13%
    13:00 +39°C° 0 mm 6 mps 758 mmHg 10%
    14:00 +39°C° 0 mm 6 mps 758 mmHg 12%
    15:00 +38°C° 0 mm 7 mps 758 mmHg 13%
    16:00 +38°C° 0 mm 8 mps 757 mmHg 14%
    17:00 +34°C° 0 mm 7 mps 758 mmHg 19%
    18:00 +32°C° 0 mm 7 mps 758 mmHg 24%
    19:00 +28°C° 0 mm 6 mps 759 mmHg 29%
    20:00 +28°C° 0 mm 6 mps 760 mmHg 30%
    21:00 +27°C° 0 mm 5 mps 760 mmHg 30%
    22:00 +26°C° 0 mm 5 mps 760 mmHg 30%
    23:00 +26°C° 0 mm 5 mps 760 mmHg 30%

    28 June, Wednesday

    Time Temperature Precipitation Wind Pressure Humidity
    00:00 +25°C° 0 mm 5 mps 760 mmHg 31%
    01:00 +25°C° 0 mm 5 mps 759 mmHg 31%
    02:00 +23°C° 0 mm 5 mps 759 mmHg 32%
    03:00 +23°C° 0 mm 5 mps 759 mmHg 32%
    04:00 +22°C° 0 mm 5 mps 759 mmHg 33%
    05:00 +22°C° 0 mm 5 mps 759 mmHg 32%
    06:00 +22°C° 0 mm 5 mps 760 mmHg 32%
    07:00 +22°C° 0 mm 6 mps 760 mmHg 32%
    08:00 +26°C° 0 mm 6 mps 760 mmHg 26%
    09:00 +29°C° 0 mm 6 mps 760 mmHg 20%
    10:00 +33°C° 0 mm 6 mps 760 mmHg 14%
    11:00 +35°C° 0 mm 6 mps 759 mmHg 12%
    12:00 +36°C° 0 mm 7 mps 759 mmHg 10%
    13:00 +39°C° 0 mm 7 mps 758 mmHg 8%
    14:00 +38°C° 0 mm 8 mps 758 mmHg 11%
    15:00 +38°C° 0 mm 8 mps 757 mmHg 13%
    16:00 +37°C° 0 mm 9 mps 757 mmHg 16%
    17:00 +33°C° 0 mm 8 mps 758 mmHg 23%
    18:00 +31°C° 0 mm 8 mps 758 mmHg 30%
    19:00 +27°C° 0 mm 8 mps 759 mmHg 37%
    20:00 +26°C° 0 mm 7 mps 759 mmHg 40%
    21:00 +24°C° 0 mm 6 mps 759 mmHg 43%
    22:00 +25°C° 0 mm 5 mps 760 mmHg 46%
    23:00 +23°C° 0 mm 5 mps 759 mmHg 46%

    29 June, Thursday

    Time Temperature Precipitation Wind Pressure Humidity
    00:00 +23°C° 0 mm 5 mps 759 mmHg 46%
    01:00 +22°C° 0 mm 4 mps 759 mmHg 46%
    02:00 +22°C° 0 mm 4 mps 759 mmHg 44%
    03:00 +22°C° 0 mm 4 mps 759 mmHg 42%
    04:00 +22°C° 0 mm 4 mps 759 mmHg 40%
    05:00 +22°C° 0 mm 4 mps 759 mmHg 39%
    06:00 +22°C° 0 mm 4 mps 759 mmHg 38%
    07:00 +22°C° 0 mm 4 mps 760 mmHg 37%
    08:00 +26°C° 0 mm 4 mps 760 mmHg 30%
    09:00 +29°C° 0 mm 4 mps 760 mmHg 23%
    10:00 +33°C° 0 mm 4 mps 760 mmHg 16%
    11:00 +34°C° 0 mm 4 mps 760 mmHg 16%
    12:00 +36°C° 0 mm 5 mps 759 mmHg 15%
    13:00 +38°C° 0 mm 6 mps 759 mmHg 14%
    14:00 +36°C° 0 mm 6 mps 758 mmHg 19%
    15:00 +35°C° 0 mm 7 mps 758 mmHg 24%
    16:00 +33°C° 0 mm 7 mps 758 mmHg 28%
    17:00 +30°C° 0 mm 7 mps 759 mmHg 36%
    18:00 +28°C° 0 mm 6 mps 760 mmHg 43%
    19:00 +26°C° 0 mm 6 mps 760 mmHg 51%
    20:00 +25°C° 0 mm 5 mps 761 mmHg 52%
    21:00 +23°C° 0 mm 5 mps 761 mmHg 54%
    22:00 +23°C° 0 mm 5 mps 761 mmHg 55%
    23:00 +22°C° 0 mm 5 mps 761 mmHg 55%
    Show more